Regional Weather Roundup
Issued by NWS

Home | Current Version | Previous Version | Graphics & Text | Print | Product List | Glossary On
Versions: 1 2 3 4 5 6 7 8 9 10 11 12 13 14 15 16 17 18 19 20 21 22 23 24 25 26 27 28
000
ASUS45 KTFX 181410
RWRMT
MONTANA REGIONAL WEATHER ROUNDUP
NATIONAL WEATHER SERVICE GREAT FALLS MT
700 AM MST SAT FEB 18 2017

NOTE: "FAIR" INDICATES FEW OR NO CLOUDS BELOW 12000 FEET WITH NO
SIGNIFICANT WEATHER AND/OR OBSTRUCTIONS TO VISIBILITY.

MTZ001>007-043-181500-
WEST OF THE DIVIDE

CITY           SKY/WX    TMP DP  RH WIND       PRES   REMARKS
KALISPELL      MOCLDY    32  26  78 N9        29.50S WCI  24
MISSOULA       CLOUDY    30  28  92 CALM      29.51F
BUTTE          CLOUDY    36  27  69 S5        29.52S
MULLAN PASS    CLOUDY    25  24  96 SE10G18   29.41F WCI  15
ANACONDA         N/A     37  28  70 S8        29.50S WCI  31
DEER LODGE       N/A     39  28  65 SW3       29.52F
EUREKA           N/A     19  18  93 CALM      29.55S
HAMILTON         N/A     30  28  93 CALM      29.50
LIBBY            N/A     23  21  93 CALM      29.52S VSB 0
PLAINS           N/A     25  19  77 CALM      29.55F VSB 0
RONAN            N/A     27  23  84 CALM      29.57F
THOMPSON FALLS   N/A     27  25  92 CALM      29.58F
$$

MTZ008-052>055-181500-
SOUTHWEST MONTANA

CITY           SKY/WX    TMP DP  RH WIND       PRES   REMARKS
DILLON         CLOUDY    33  26  75 E5        29.53R
W YELLOWSTONE  CLOUDY    32  32 100 SW12      29.63R FOG     WCI  23
ENNIS          CLOUDY    41  30  65 S21G29    29.59S
THREE FORKS      N/A     30  -1  26 MISG      29.58S
TWIN BRIDGES     N/A     34  26  72 SE1       29.59R
$$

MTZ009-010-012-014-046-048-049-054-181500-
EAST SLOPES AND CENTRAL MONTANA

CITY           SKY/WX    TMP DP  RH WIND       PRES   REMARKS
CUT BANK       CLOUDY    29  26  89 N7        29.51F WCI  22
GREAT FALLS    CLOUDY    32  25  75 CALM      29.52S
MALMSTROM AFB  CLOUDY    32  27  80 CALM      29.53S
HELENA         CLOUDY    34  30  85 CALM      29.53S
AUGUSTA        MOCLDY    33  25  72 W3        29.50S
BOWMANS CRNR   MOCLDY    30  25  82 SW7       29.50S WCI  23
CHOTEAU          N/A     30  28  93 SE3       29.53S
CONRAD           N/A     30  30 100 CALM      29.58F
POWER          CLOUDY    31  27  83 NE5       29.51S
RAYNESFORD     MOCLDY    37  22  54 E6        29.52S
ULM            CLOUDY    32  27  83 MISG      29.53S
$$

MTZ011-013-016-021-045-047-050-051-181500-
NORTH CENTRAL MONTANA

CITY           SKY/WX    TMP DP  RH WIND       PRES   REMARKS
HAVRE          CLOUDY    32  28  85 E12       29.57S WCI  23
LEWISTOWN      CLOUDY    34  24  67 SW6       29.54R WCI  29
N BAR RANCH    CLOUDY    41  18  38 CALM      29.59S
CHINOOK          N/A     34  28  80 E8        29.60R WCI  27
DENTON         CLOUDY    35  26  68 CALM      29.51S
FORT BENTON      N/A     36  27  69 MISG      29.55F
GEYSER         CLOUDY    34  24  67 W3        29.52S
GRASS RANGE    MOCLDY    37  26  63 CALM      29.53S
JUDITH GAP     CLOUDY    33  24  71 S8        29.56R WCI  25
ROY            MOCLDY    35  26  67 MISG      29.54F
STANFORD       MOCLDY    37  24  59 SE6       29.53S
WINIFRED       MOCLDY    35  27  73 E12       29.53F WCI  26
$$

MTZ017>020-022>027-061-062-181500-
NORTHEAST MONTANA

CITY           SKY/WX    TMP DP  RH WIND       PRES   REMARKS
GLASGOW        CLOUDY    33  29  85 VRB5      29.63S
JORDAN           N/A     29  25  85 E3        29.60S
SIDNEY         PTCLDY    25  23  92 N3        29.68F
WOLF POINT     PTCLDY    29  25  85 E6        29.67S WCI  23
PLENTYWOOD       N/A     28  27  93 CALM      29.70R
POPLAR           N/A     28  25  86 N13       29.68S WCI  18
SCOBEY           N/A     25  19  77 CALM      29.68S
$$

MTZ028>42-056>058-181500-
SOUTHCENTRAL AND SOUTHEAST MONTANA

CITY           SKY/WX    TMP DP  RH WIND       PRES   REMARKS
BAKER          CLOUDY    34  28  79 E6        29.63S WCI  29
BILLINGS       CLOUDY    36  26  67 SW9       29.58S WCI  29
LIVINGSTON     CLOUDY    32  24  72 VRB7      29.55F WCI  26
MILES CITY     LGT RAIN  35  29  78 NE9       29.59S WCI  28
BIG TIMBER     CLOUDY    34  27  75 NW5       29.59F
EKALAKA          N/A     41  24  51 E13       29.62F
FORSYTH          N/A     36  30  80 CALM      29.57S
HARLOWTON      CLOUDY    33  25  75 W7        29.56F WCI  26
LAUREL           N/A     35  18  50 W1        29.60F
$$

REGIONAL REPORTS...DAKOTAS

CITY           SKY/WX    TMP DP  RH WIND       PRES   REMARKS
WILLISTON      CLOUDY    24  22  91 N5        29.71S
MINOT          CLEAR     32  28  85 SW9       29.70R WCI  24
DICKINSON      CLOUDY    31  26  82 SE5       29.67R
BEACH            N/A    N/A N/A N/A MISG        N/A
CROSBY           N/A     27  27 100 CALM      29.74R
TIOGA            N/A     27  27 100 CALM      29.73R
WATFORD CITY     N/A     25  23  93 CALM      29.70F
BISMARCK       CLOUDY    26  24  92 S6        29.73S WCI  19
GRAND FORKS    PTCLDY    34  28  79 W10       29.68R WCI  26
FARGO          CLEAR     32  31  96 SW3       29.70S
BUFFALO SD       N/A     36  27  69 NE12      29.56F WCI  28
RAPID CITY     CLOUDY    38  26  62 SE9       29.65F WCI  31
$$

REGIONAL REPORTS...WYOMING/IDAHO/WASHINGTON

CITY           SKY/WX    TMP DP  RH WIND       PRES   REMARKS
GILLETTE       CLOUDY    41  31  67 S16       29.57S
SHERIDAN       CLOUDY    31  25  78 MISG      29.56S
BUFFALO WY     CLOUDY    40  28  62 NW9       29.57R
CODY           CLOUDY    34  28  79 S6        29.60S WCI  29
YELLOWSTONE LA   N/A     27  27 100 CALM      29.67S
IDAHO FALLS    CLOUDY    41  34  76 SW8       29.61S
SALMON         CLOUDY    32  28  86 CALM      29.53S
BOISE          CLOUDY    46  38  73 SE13      29.47S
SPOKANE        CLOUDY    32  29  88 NE5       29.44F
$$

REGIONAL REPORTS...ALBERTA

CITY           SKY/WX    TMP DP  RH WIND       PRES   REMARKS
EDMONTON       CLOUDY    25  23  93 CALM      29.63S
CALGARY        MOCLDY    25  19  80 CALM      29.54F
LETHBRIDGE     MOCLDY    25  21  86 S5        29.55S
MEDICINE HAT   MOCLDY    28  25  86 NE6       29.59F WCI  22
WATERTON GATE    N/A     25  21  86 SW3         N/A
CARDSTON         N/A     25  21  86 W1          N/A
MILK RIVER       N/A     27  25  93 N3          N/A
$$

REGIONAL REPORTS...SASKATCHEWAN

CITY           SKY/WX    TMP DP  RH WIND       PRES   REMARKS
SWIFT CURRENT  CLOUDY    30  27  86 E7        29.64R WCI  23
REGINA         CLOUDY    28  28 100 VRB2      29.68R
SASKATOON      CLEAR     25  25 100 SW3       29.68S
CYPRESS HILLS    N/A     34  16  47 E7          N/A  WCI  28
VAL MARIE        N/A     27  25  93 E7          N/A  WCI  19
ASSINIBOIA       N/A     25  23  93 S3          N/A
$$




USA.gov is the U.S. government's official web portal to all federal, state and local government web resources and services.